N737BX KBOS-KEWR

Flight info

Callsign N737BX
Flight time 0h 55m
Altitude 30000
Route PATSS7 PATSS NELIE FLOSI4
Aircraft B738/M-SDE2E3FGHIJ2J3P2RWXY/LB1

Departure

Time 2026-05-04 18:18
Airport Boston Logan International Airport (KBOS)

Arrival

Time 2026-05-04 19:13
Airport Newark Liberty International Airport (KEWR)
Time Latitude Longitude Altitude Speed Heading
2026-05-04 17:47 42.36401 -71.01616 24 ft 0 kts 219°
2026-05-04 18:01 42.36402 -71.01615 35 ft 2 kts 219°
2026-05-04 18:02 42.36427 -71.01587 27 ft 2 kts 219°
2026-05-04 18:02 42.36441 -71.01578 25 ft 2 kts 139°
2026-05-04 18:02 42.36450 -71.01592 26 ft 1 kts 121°
2026-05-04 18:02 42.36450 -71.01593 26 ft 0 kts 121°
2026-05-04 18:06 42.36449 -71.01590 26 ft 2 kts 121°
2026-05-04 18:06 42.36435 -71.01559 24 ft 6 kts 121°
2026-05-04 18:06 42.36417 -71.01521 23 ft 0 kts 121°
2026-05-04 18:09 42.36392 -71.01448 22 ft 8 kts 94°
2026-05-04 18:09 42.36476 -71.01360 25 ft 9 kts 22°
2026-05-04 18:10 42.36535 -71.01323 25 ft 10 kts 26°
2026-05-04 18:10 42.36600 -71.01285 26 ft 10 kts 20°
2026-05-04 18:10 42.36666 -71.01259 27 ft 10 kts 15°
2026-05-04 18:10 42.36733 -71.01239 27 ft 11 kts
2026-05-04 18:11 42.36807 -71.01279 24 ft 10 kts 342°
2026-05-04 18:11 42.36870 -71.01243 23 ft 11 kts 38°
2026-05-04 18:11 42.36926 -71.01176 24 ft 11 kts 41°
2026-05-04 18:11 42.36986 -71.01111 24 ft 12 kts 33°
2026-05-04 18:12 42.37067 -71.01056 21 ft 14 kts 26°
2026-05-04 18:12 42.37159 -71.00996 21 ft 15 kts 26°
2026-05-04 18:12 42.37263 -71.00928 21 ft 21 kts 25°
2026-05-04 18:12 42.37406 -71.00853 21 ft 22 kts 20°
2026-05-04 18:13 42.37547 -71.00785 23 ft 21 kts 18°
2026-05-04 18:13 42.37682 -71.00721 27 ft 20 kts 18°
2026-05-04 18:13 42.37834 -71.00628 28 ft 8 kts 55°
2026-05-04 18:14 42.37837 -71.00582 27 ft 0 kts 99°
2026-05-04 18:15 42.37824 -71.00521 30 ft 9 kts 108°
2026-05-04 18:15 42.37769 -71.00485 26 ft 0 kts 197°
2026-05-04 18:17 42.37296 -71.00712 20 ft 102 kts 200°
2026-05-04 18:18 42.36430 -71.01122 76 ft 155 kts 201°
2026-05-04 18:18 42.35408 -71.01602 819 ft 155 kts 205°
2026-05-04 18:18 42.34346 -71.01729 1705 ft 166 kts 172°
2026-05-04 18:18 42.33384 -71.00713 2484 ft 185 kts 136°
2026-05-04 18:19 42.31357 -70.99821 3942 ft 154 kts 212°
2026-05-04 18:19 42.30512 -71.00661 4707 ft 149 kts 233°
2026-05-04 18:19 42.30050 -71.01931 5302 ft 160 kts 252°
2026-05-04 18:20 42.29708 -71.03500 5503 ft 186 kts 253°
2026-05-04 18:20 42.29331 -71.05287 5674 ft 209 kts 254°
2026-05-04 18:20 42.28914 -71.07284 5915 ft 233 kts 254°
2026-05-04 18:20 42.28474 -71.09401 6585 ft 240 kts 254°
2026-05-04 18:21 42.28013 -71.11619 7387 ft 244 kts 255°
2026-05-04 18:21 42.27556 -71.13816 8123 ft 249 kts 255°
2026-05-04 18:21 42.27086 -71.16073 8967 ft 251 kts 256°
2026-05-04 18:21 42.26609 -71.18357 9758 ft 255 kts 256°
2026-05-04 18:22 42.26125 -71.20684 10371 ft 264 kts 256°
2026-05-04 18:22 42.25606 -71.23184 10541 ft 289 kts 256°
2026-05-04 18:22 42.25042 -71.25898 10748 ft 311 kts 256°
2026-05-04 18:22 42.24444 -71.28757 11254 ft 321 kts 256°
2026-05-04 18:23 42.23832 -71.31676 11949 ft 325 kts 256°
2026-05-04 18:23 42.23219 -71.34591 12679 ft 329 kts 256°
2026-05-04 18:23 42.22590 -71.37577 13393 ft 334 kts 256°
2026-05-04 18:23 42.21949 -71.40620 14031 ft 340 kts 256°
2026-05-04 18:24 42.21300 -71.43699 14749 ft 344 kts 256°
2026-05-04 18:24 42.20643 -71.46808 15487 ft 346 kts 256°
2026-05-04 18:24 42.19985 -71.49919 15901 ft 343 kts 256°
2026-05-04 18:24 42.19325 -71.53034 15986 ft 349 kts 256°
2026-05-04 18:25 42.18660 -71.56168 16004 ft 348 kts 256°
2026-05-04 18:25 42.18001 -71.59269 16014 ft 350 kts 256°
2026-05-04 18:25 42.17330 -71.62428 16016 ft 351 kts 256°
2026-05-04 18:25 42.16655 -71.65597 16016 ft 352 kts 256°
2026-05-04 18:26 42.15977 -71.68771 16017 ft 352 kts 256°
2026-05-04 18:26 42.15300 -71.71942 16010 ft 352 kts 256°
2026-05-04 18:26 42.14622 -71.75108 16005 ft 351 kts 256°
2026-05-04 18:26 42.13947 -71.78256 16004 ft 349 kts 256°
2026-05-04 18:27 42.13274 -71.81394 16001 ft 348 kts 256°
2026-05-04 18:27 42.12601 -71.84525 16015 ft 347 kts 256°
2026-05-04 18:27 42.11938 -71.87606 16013 ft 347 kts 256°
2026-05-04 18:27 42.11266 -71.90726 16011 ft 347 kts 256°
2026-05-04 18:28 42.10593 -71.93845 16006 ft 347 kts 256°
2026-05-04 18:28 42.09921 -71.96955 16014 ft 347 kts 256°
2026-05-04 18:28 42.09245 -72.00076 16006 ft 347 kts 256°
2026-05-04 18:28 42.08567 -72.03206 16009 ft 348 kts 256°
2026-05-04 18:29 42.07889 -72.06332 16020 ft 348 kts 256°
2026-05-04 18:29 42.07207 -72.09466 16014 ft 349 kts 256°
2026-05-04 18:29 42.06525 -72.12598 16009 ft 350 kts 256°
2026-05-04 18:29 42.05850 -72.15695 16016 ft 349 kts 256°
2026-05-04 18:30 42.04478 -72.21971 16008 ft 349 kts 256°
2026-05-04 18:30 42.03792 -72.25104 15996 ft 349 kts 256°
2026-05-04 18:30 42.03105 -72.28235 15997 ft 349 kts 256°
2026-05-04 18:31 42.02419 -72.31360 16004 ft 349 kts 256°
2026-05-04 18:31 42.01732 -72.34485 16000 ft 349 kts 256°
2026-05-04 18:31 42.01041 -72.37622 16004 ft 349 kts 256°
2026-05-04 18:31 42.00362 -72.40703 16002 ft 349 kts 256°
2026-05-04 18:32 41.99671 -72.43833 16004 ft 349 kts 256°
2026-05-04 18:32 41.98978 -72.46964 16002 ft 349 kts 256°
2026-05-04 18:32 41.98286 -72.50089 16003 ft 349 kts 256°
2026-05-04 18:32 41.97593 -72.53211 16003 ft 349 kts 256°
2026-05-04 18:33 41.96899 -72.56338 16000 ft 349 kts 256°
2026-05-04 18:33 41.96206 -72.59453 15997 ft 349 kts 256°
2026-05-04 18:33 41.95511 -72.62577 16002 ft 349 kts 256°
2026-05-04 18:33 41.94823 -72.65660 15997 ft 349 kts 256°
2026-05-04 18:34 41.94124 -72.68787 16007 ft 350 kts 255°
2026-05-04 18:34 41.93404 -72.71910 16010 ft 350 kts 255°
2026-05-04 18:34 41.92662 -72.75031 15999 ft 351 kts 255°
2026-05-04 18:34 41.91915 -72.78146 15989 ft 351 kts 254°
2026-05-04 18:35 41.91168 -72.81254 15996 ft 350 kts 255°
2026-05-04 18:35 41.90421 -72.84365 15996 ft 350 kts 255°
2026-05-04 18:35 41.89676 -72.87470 15999 ft 349 kts 255°
2026-05-04 18:35 41.88943 -72.90527 16003 ft 349 kts 255°
2026-05-04 18:36 41.88199 -72.93624 16001 ft 348 kts 255°
2026-05-04 18:36 41.87456 -72.96717 16002 ft 349 kts 255°
2026-05-04 18:36 41.86713 -72.99811 16007 ft 349 kts 255°
2026-05-04 18:36 41.85968 -73.02907 16000 ft 349 kts 254°
2026-05-04 18:37 41.85221 -73.06010 16003 ft 349 kts 255°
2026-05-04 18:37 41.84474 -73.09106 16009 ft 350 kts 254°
2026-05-04 18:37 41.83723 -73.12214 16014 ft 350 kts 254°
2026-05-04 18:37 41.82982 -73.15276 16015 ft 350 kts 254°
2026-05-04 18:38 41.82230 -73.18382 16007 ft 350 kts 254°
2026-05-04 18:38 41.81478 -73.21484 16009 ft 350 kts 254°
2026-05-04 18:38 41.80724 -73.24586 16011 ft 350 kts 254°
2026-05-04 18:38 41.79968 -73.27695 16009 ft 351 kts 254°
2026-05-04 18:39 41.79211 -73.30805 16004 ft 351 kts 254°
2026-05-04 18:39 41.78454 -73.33910 15998 ft 351 kts 254°
2026-05-04 18:39 41.77696 -73.37011 16016 ft 350 kts 254°
2026-05-04 18:39 41.76938 -73.40114 16014 ft 350 kts 254°
2026-05-04 18:40 41.76189 -73.43173 16012 ft 350 kts 254°
2026-05-04 18:40 41.75430 -73.46270 16014 ft 350 kts 254°
2026-05-04 18:40 41.74669 -73.49368 16014 ft 350 kts 254°
2026-05-04 18:40 41.73908 -73.52466 16006 ft 350 kts 254°
2026-05-04 18:41 41.73147 -73.55556 16013 ft 350 kts 254°
2026-05-04 18:41 41.72385 -73.58650 16007 ft 350 kts 253°
2026-05-04 18:41 41.71623 -73.61740 16015 ft 349 kts 254°
2026-05-04 18:41 41.70860 -73.64825 16010 ft 349 kts 254°
2026-05-04 18:42 41.70097 -73.67912 15999 ft 350 kts 254°
2026-05-04 18:42 41.69331 -73.71004 16007 ft 350 kts 254°
2026-05-04 18:42 41.68583 -73.74019 15997 ft 340 kts 254°
2026-05-04 18:42 41.67848 -73.76980 15740 ft 335 kts 254°
2026-05-04 18:43 41.67118 -73.79913 15462 ft 330 kts 254°
2026-05-04 18:43 41.66398 -73.82814 15071 ft 327 kts 254°
2026-05-04 18:43 41.65708 -73.85689 14692 ft 323 kts 255°
2026-05-04 18:43 41.65035 -73.88544 14283 ft 321 kts 255°
2026-05-04 18:44 41.64370 -73.91379 13882 ft 319 kts 255°
2026-05-04 18:44 41.64144 -73.92338 13721 ft 319 kts 255°
2026-05-04 18:44 41.63041 -73.97019 12959 ft 316 kts 255°
2026-05-04 18:44 41.62382 -73.99806 12534 ft 313 kts 255°
2026-05-04 18:45 41.61736 -74.02528 12130 ft 310 kts 255°
2026-05-04 18:45 41.61086 -74.05261 11731 ft 307 kts 255°
2026-05-04 18:45 41.60441 -74.07972 11354 ft 305 kts 254°
2026-05-04 18:45 41.59800 -74.10665 10952 ft 303 kts 254°
2026-05-04 18:46 41.59164 -74.13334 10571 ft 300 kts 254°
2026-05-04 18:46 41.58539 -74.15945 10449 ft 290 kts 254°
2026-05-04 18:46 41.57936 -74.18468 10289 ft 281 kts 254°
2026-05-04 18:46 41.57352 -74.20912 10162 ft 272 kts 254°
2026-05-04 18:47 41.56787 -74.23272 10044 ft 263 kts 254°
2026-05-04 18:47 41.56244 -74.25532 9933 ft 255 kts 254°
2026-05-04 18:47 41.55705 -74.27779 9651 ft 253 kts 254°
2026-05-04 18:47 41.55169 -74.30007 9360 ft 251 kts 254°
2026-05-04 18:48 41.54495 -74.32148 9059 ft 253 kts 237°
2026-05-04 18:48 41.53199 -74.33733 8838 ft 254 kts 218°
2026-05-04 18:48 41.51574 -74.34729 8549 ft 259 kts 204°
2026-05-04 18:48 41.49859 -74.35448 8260 ft 259 kts 202°
2026-05-04 18:49 41.48139 -74.36141 7994 ft 257 kts 202°
2026-05-04 18:49 41.46433 -74.36849 7714 ft 256 kts 202°
2026-05-04 18:49 41.44742 -74.37565 7441 ft 254 kts 202°
2026-05-04 18:49 41.43085 -74.38276 7172 ft 253 kts 202°
2026-05-04 18:50 41.41421 -74.38991 6971 ft 248 kts 202°
2026-05-04 18:50 41.39788 -74.39691 6886 ft 246 kts 202°
2026-05-04 18:50 41.38161 -74.40392 6798 ft 247 kts 202°
2026-05-04 18:50 41.36521 -74.41096 6703 ft 248 kts 202°
2026-05-04 18:51 41.34875 -74.41805 6616 ft 250 kts 203°
2026-05-04 18:51 41.33215 -74.42519 6515 ft 251 kts 202°
2026-05-04 18:51 41.31555 -74.43231 6434 ft 251 kts 202°
2026-05-04 18:51 41.29915 -74.43935 6353 ft 251 kts 202°
2026-05-04 18:52 41.28257 -74.44647 6266 ft 251 kts 202°
2026-05-04 18:52 41.26598 -74.45360 6172 ft 251 kts 202°
2026-05-04 18:52 41.24937 -74.46069 6083 ft 251 kts 202°
2026-05-04 18:52 41.23278 -74.46773 5953 ft 248 kts 201°
2026-05-04 18:53 41.21659 -74.47461 5809 ft 240 kts 202°
2026-05-04 18:53 41.20092 -74.48132 5669 ft 233 kts 202°
2026-05-04 18:53 41.18567 -74.48784 5539 ft 227 kts 203°
2026-05-04 18:53 41.17084 -74.49424 5411 ft 221 kts 202°
2026-05-04 18:54 41.15660 -74.50048 5311 ft 210 kts 203°
2026-05-04 18:54 41.14317 -74.50611 5151 ft 200 kts 202°
2026-05-04 18:54 41.13022 -74.51157 5002 ft 190 kts 203°
2026-05-04 18:54 41.11771 -74.51689 4873 ft 186 kts 203°
2026-05-04 18:55 41.10551 -74.52208 4745 ft 183 kts 203°
2026-05-04 18:55 41.08097 -74.53208 4472 ft 188 kts 193°
2026-05-04 18:55 41.06806 -74.52828 4312 ft 201 kts 150°
2026-05-04 18:56 41.05923 -74.51346 4237 ft 212 kts 120°
2026-05-04 18:56 41.05330 -74.49554 4130 ft 218 kts 118°
2026-05-04 18:56 41.04731 -74.47699 4002 ft 220 kts 118°
2026-05-04 18:56 41.04135 -74.45841 3876 ft 219 kts 118°
2026-05-04 18:57 41.03541 -74.44002 3738 ft 215 kts 118°
2026-05-04 18:57 41.02958 -74.42181 3597 ft 214 kts 118°
2026-05-04 18:57 41.02373 -74.40376 3493 ft 214 kts 119°
2026-05-04 18:57 41.01785 -74.38556 3399 ft 217 kts 119°
2026-05-04 18:58 41.01188 -74.36715 3270 ft 217 kts 119°
2026-05-04 18:58 41.00589 -74.34897 3187 ft 214 kts 117°
2026-05-04 18:58 41.00002 -74.33079 3084 ft 216 kts 117°
2026-05-04 18:58 40.99427 -74.31296 2999 ft 209 kts 118°
2026-05-04 18:59 40.98862 -74.29549 2978 ft 205 kts 116°
2026-05-04 18:59 40.98305 -74.27816 2982 ft 202 kts 119°
2026-05-04 18:59 40.97746 -74.26134 3014 ft 199 kts 118°
2026-05-04 18:59 40.97195 -74.24446 3000 ft 201 kts 117°
2026-05-04 19:00 40.96979 -74.22584 3015 ft 212 kts 87°
2026-05-04 19:00 40.97118 -74.20640 3012 ft 214 kts 88°
2026-05-04 19:00 40.97242 -74.18671 2985 ft 214 kts 86°
2026-05-04 19:00 40.97715 -74.16820 2968 ft 214 kts 53°
2026-05-04 19:01 40.98642 -74.15331 3002 ft 213 kts 47°
2026-05-04 19:01 40.99611 -74.13843 2993 ft 214 kts 47°
2026-05-04 19:01 41.00578 -74.12334 2986 ft 215 kts 48°
2026-05-04 19:01 41.01550 -74.10795 2986 ft 220 kts 47°
2026-05-04 19:02 41.02522 -74.09279 2954 ft 211 kts 48°
2026-05-04 19:02 41.03466 -74.07819 2971 ft 206 kts 47°
2026-05-04 19:02 41.04381 -74.06358 2983 ft 206 kts 48°
2026-05-04 19:02 41.05327 -74.04890 2977 ft 213 kts 46°
2026-05-04 19:03 41.06282 -74.03391 2958 ft 210 kts 49°
2026-05-04 19:03 41.06925 -74.01726 2984 ft 205 kts 83°
2026-05-04 19:03 41.06792 -73.99886 2987 ft 199 kts 116°
2026-05-04 19:03 41.06258 -73.98190 2985 ft 201 kts 117°
2026-05-04 19:04 41.05672 -73.96523 2953 ft 196 kts 133°
2026-05-04 19:04 41.04623 -73.95560 2971 ft 179 kts 172°
2026-05-04 19:04 41.03413 -73.95357 2944 ft 172 kts 189°
2026-05-04 19:04 41.02243 -73.95588 2982 ft 173 kts 201°
2026-05-04 19:05 41.01124 -73.96200 2981 ft 176 kts 208°
2026-05-04 19:05 41.00034 -73.96892 2962 ft 175 kts 210°
2026-05-04 19:05 40.98956 -73.97582 2962 ft 170 kts 210°
2026-05-04 19:05 40.97899 -73.98259 2985 ft 168 kts 210°
2026-05-04 19:06 40.96840 -73.98937 2973 ft 171 kts 210°
2026-05-04 19:06 40.95759 -73.99626 2984 ft 174 kts 210°
2026-05-04 19:06 40.94672 -74.00354 2990 ft 177 kts 211°
2026-05-04 19:06 40.93563 -74.01068 2959 ft 176 kts 210°
2026-05-04 19:07 40.92475 -74.01737 2965 ft 171 kts 208°
2026-05-04 19:07 40.91407 -74.02401 2979 ft 169 kts 210°
2026-05-04 19:07 40.90343 -74.03044 2975 ft 168 kts 211°
2026-05-04 19:07 40.89297 -74.03700 2985 ft 170 kts 210°
2026-05-04 19:08 40.88217 -74.04384 2984 ft 174 kts 209°
2026-05-04 19:08 40.87122 -74.05082 2973 ft 175 kts 209°
2026-05-04 19:08 40.86029 -74.05777 2948 ft 173 kts 208°
2026-05-04 19:08 40.84955 -74.06459 2972 ft 171 kts 209°
2026-05-04 19:09 40.83886 -74.07139 2945 ft 171 kts 209°
2026-05-04 19:09 40.82809 -74.07828 2790 ft 173 kts 208°
2026-05-04 19:09 40.81729 -74.08514 2584 ft 171 kts 209°
2026-05-04 19:09 40.80686 -74.09178 2359 ft 165 kts 209°
2026-05-04 19:10 40.79685 -74.09815 2144 ft 156 kts 208°
2026-05-04 19:10 40.78724 -74.10428 1932 ft 150 kts 209°
2026-05-04 19:10 40.77800 -74.11019 1782 ft 143 kts 210°
2026-05-04 19:10 40.76915 -74.11585 1585 ft 144 kts 208°
2026-05-04 19:11 40.76013 -74.12162 1359 ft 141 kts 209°
2026-05-04 19:11 40.75142 -74.12717 1202 ft 139 kts 208°
2026-05-04 19:11 40.74253 -74.13294 995 ft 144 kts 210°
2026-05-04 19:11 40.73373 -74.13852 814 ft 137 kts 212°
2026-05-04 19:12 40.72495 -74.14409 597 ft 140 kts 210°
2026-05-04 19:12 40.70845 -74.15463 298 ft 127 kts 209°
2026-05-04 19:12 40.70020 -74.15984 85 ft 135 kts 207°
2026-05-04 19:13 40.69217 -74.16496 25 ft 109 kts 209°
2026-05-04 19:13 40.68726 -74.16808 17 ft 48 kts 205°
2026-05-04 19:13 40.68602 -74.16901 20 ft 7 kts 217°
2026-05-04 19:13 40.68561 -74.16951 19 ft 9 kts 228°
2026-05-04 19:14 40.68525 -74.17014 21 ft 9 kts 236°
2026-05-04 19:14 40.68493 -74.17078 23 ft 8 kts 235°
2026-05-04 19:14 40.68461 -74.17139 26 ft 8 kts 237°
2026-05-04 19:14 40.68441 -74.17205 24 ft 8 kts 267°
2026-05-04 19:15 40.68456 -74.17274 26 ft 8 kts 294°
2026-05-04 19:15 40.68480 -74.17345 25 ft 9 kts 295°
2026-05-04 19:15 40.68510 -74.17417 23 ft 9 kts 306°
2026-05-04 19:15 40.68554 -74.17472 27 ft 9 kts 320°
2026-05-04 19:16 40.68589 -74.17535 25 ft 9 kts 296°
2026-05-04 19:16 40.68617 -74.17613 24 ft 10 kts 296°
2026-05-04 19:16 40.68647 -74.17694 21 ft 9 kts 295°
2026-05-04 19:16 40.68669 -74.17754 21 ft 5 kts 295°
2026-05-04 19:17 40.68697 -74.17762 21 ft 5 kts 24°
2026-05-04 19:17 40.68728 -74.17741 21 ft 4 kts 27°
2026-05-04 19:17 40.68738 -74.17735 21 ft 0 kts 28°